DECAYED

STARLINK-4315, 53077 (Decayed)

Orbit data source: Space-Track

STARLINK-4315, 53077 was a payload satellite owned by SpaceX/Seattle (US) in LEO that was launched on Mon, 11 Jul 2022 UTC via an FALCON 9 launch vehicle from the Air Force Western Test Range (AFWTR). Payload-class satellites include a variety of spacecraft equipped with specific instruments for various scientific and technological missions. These include communications satellites like Starlink; space stations such as the ISS; scientific satellites like the Hubble; Earth observation satellites from companies like Planet Labs, Umbra, and HawkEye 360; GPS; miniature CubeSats for education and research; and military/defense satellites.

Not visible in the next 10 days
Identifier
53077, 2022-077AL
Orbit
Decayed
Country
Flag of USUS
Related business
Manufacturer
SpaceX/Seattle
Mission
Decayed Commercial Communications
Bus & Motor
STARLINK, Unknown motor
Mass
297 kg wet, ~275 kg dry
Launch date (UTC)
2022-07-11 (4 years ago)
Launch vehicle
FALCON 9
Launch site
Air Force Western Test Range (AFWTR)
Object type
Payload
Rocket body
Debris
Shape & HBR
Box + 1 Pan, 10.1 m
Radar Cross Section
13.562 m², Large (>1 m²)

Expand to show TLE details & history
Last TLE update: 4 months ago

TLE from 4 months ago
0 STARLINK-4315
1 53077U 22077AL  26045.35215705  .17525969  26732-5  21323-2 0  9997
2 53077  97.5946 245.4573 0009100 258.4757 101.5519 16.36286171198553
Epoch: 2026-02-14T08:27Z
TLE epoch observation values (Epoch: 2026-02-14T08:27:06.369Z)
Latitude
0.00007°
Longitude
-25.69569°
Altitude
180.141 km
Speed
7.797 km/s
True Right ascension
16h 21m 49s
True Declination
0° 00' 00"
Sunlit
Object was in daylight at epoch
Visualization orbit readout
Latitude
Unknown
Longitude
Unknown
Altitude
Unknown
Speed
Unknown
Apparent Right ascension
Unknown
Apparent Declination
Unknown
Sunlit
N/A
Visualization observer readout
Local Sidereal Time
21:59:44
Azimuth
Unknown
Elevation
Unknown
Doppler factor
Unknown
Orbital elements
Apogee altitude
178.483 km
Perigee altitude
166.561 km
Semi-major axis
6,550.659 km
Eccentricity
0.00091
Inclination
97.5946°
RAAN
245.4573°
Arg. of periapsis
258.4757°
True anomaly
101.65404°
Mean anomaly
101.5519°
Eccentric anomaly
101.60297°
Mean motion
4.0937 °/min
Orbital period
87.94 mins
BSTAR
0.0021323
Loading maneuver chart data...
Computing Atmospheric mass density...
Loading historical data...
Loading historical data...
Loading historical data...
Loading historical data...
Loading historical data...
Loading historical data...
Loading historical data...

Documentation

Showing up to 5 results
|